Notices

What's New in latest Release from April 7th, 2021:

- Updated Glossary, including Speed of Maximum Gust, and Total Hourly Precipitation

- Updated national and regional climate services offices contacts and prices information

- Addition of station inventory lists for 1981-2010, 1971-2000, and 1961-1990 Normals.

If you haven't already, please take our survey and provide feedback about our website: https://eccc.sondage-survey.ca/f/LanguageSelection.aspx?s=442ca660-fcf1-47c0-95a9-59707d6fd709

Hourly Data Report for August 22, 2004

SHERBROOKE A
QUEBEC

45°26'00.000" N
71°41'00.000" W
241.40 m
7028124
71610
YSC

Download Data

Hourly Data (August 2004)
Hourly Data Report for August 22, 2004
TIME
LST
Temp Definition
°C
Dew Point Definition
°C
Rel Hum Definition
%
Precip. Amount Definition
mm

Wind Dir Definition
10's deg

Wind Spd Definition
km/h
Visibility Definition
km
Stn Press Definition
kPa
Hmdx Definition


Wind Chill Definition


Weather Definition


00:00 9.8 8.4 91   26 6 15.0 98.62      
01:00 8.6 7.7 94   26 4 15.0 98.65      
02:00 7.0 6.4 96   23 4 12.9 98.68      
03:00 5.7 4.9 95   24 4 15.0 98.74      
04:00 5.9 5.1 95     0 15.0 98.80      
05:00 5.2 4.4 95     0 15.0 98.89      
06:00 6.7 5.8 94     0 15.0 98.96      
07:00 10.0 8.7 92     0 24.1 98.98     Clear
08:00 12.5 9.0 79   27 4 24.1 98.94     Clear
09:00 14.6 9.9 73     0 24.1 98.94     Mainly Clear
10:00 16.7 7.7 55   32 4 24.1 98.94     Mainly Clear
11:00 17.5 7.2 51   19 7 24.1 98.90     Mainly Clear
12:00 18.3 8.3 52   28 4 24.1 98.86     Mainly Clear
13:00 19.4 9.3 52   23 7 24.1 98.82     Mainly Clear
14:00 19.7 8.9 50   24 9 24.1 98.77     Mainly Clear
15:00 20.0 9.0 49   25 4 24.1 98.72     Mainly Clear
16:00 20.4 8.6 47   26 13 24.1 98.70     Mainly Clear
17:00 20.0 8.5 47   24 6 15.0 98.63      
18:00 16.9 12.5 75     0 15.0 98.59      
19:00 12.9 10.8 87   16 6 15.0 98.57      
20:00 13.5 10.7 83     0 15.0 98.59      
21:00 11.7 10.1 90   12 4 15.0 98.57      
22:00 10.4 9.3 93     0 15.0 98.57      
23:00 9.7 8.7 93   6 4 15.0 98.54      

Notes on Data Quality.

Legend

  • E = Estimated
  • M = Missing
  • NA = Not Available*
  • [empty] = Indicates an unobserved value
Date modified: